User: anonymous   Login
Location: Unspecified
(0.0000°N, 0.0000°E)
Time: 13:25:45
(UTC+01:00)
Language:

Cosmos 773 Rocket - Orbit

View from above orbital plane
View from above orbital plane
View from above satellite
View from above satellite

Ground track
Ground track

The orbit data is extracted from the following two-line orbital elements,

1 08344U 75094B   15057.87609243  .00000247  00000-0  88509-4 0  9998
2 08344 074.0556 235.6979 0022102 345.3940 014.6573 14.38913148 64675
Epoch (UTC): 26 February 2015 21:01:34
Eccentricity: 0.0022102
inclination: 74.0556°
perigee height: 746 km
apogee height: 778 km
right ascension of ascending node: 235.6979°
argument of perigee: 345.3940°
revolutions per day: 14.38913148
mean anomaly at epoch: 14.6573°
orbit number at epoch: 6467

The dashed part of the orbit path shows where the satellite is in the earth's shadow,  

DLR